Location: Maiden
(35.5760°N, 81.2120°W)
Time: 02:43:06
(UTC-04:00)

A-11 Canister half - Pass Details

Date: 07 August 2020
Orbit: 1527 x 1682 km, 47.3° (Epoch: 25 September)

Event Time Altitude Azimuth Distance (km) Brightness Sun altitude
Rises 17:57:01 0° 295° (WNW) 4,933 12.6 28.1°
Reaches altitude 10° 18:00:25 10° 301° (WNW) 3,937 12.2 27.4°
Maximum altitude 18:10:05 47° 14° (NNE) 2,083 9.9 25.5°
Drops below altitude 10° 18:19:29 10° 86° (E) 3,837 10.6 23.6°
Sets 18:22:45 0° 93° (E) 4,800 11.0 22.9°
